Date String (YYYY-MM-DD hh:mm:ss) UTC,Instrument flags,absolute air pressure of the measurement (hPa),sample flow rate (lpm),inlet stack bypass flow (lpm),air temperature of the measurement (°C),ambient temperature measured by the external sensor (°C),aerosol sample conditioner tube jacket temperature (°C),OPC LED temperature (°C),internal box temperature (°C),relative humidity of the measurement (%),span deviation,mass concentration of particles derived from Lorenz-Mie calculation of OPC scattering (μg/m³),mass concentration of particles derived from Lorenz-Mie calculation of OPC scattering (μg/m³),mass concentration of particles derived from Lorenz-Mie calculation of OPC scattering (μg/m³)
DateTimeUTC,F1_M11,P_M11,Q1_M11,Q2_M11,T1_M11,T2_M11,T3_M11,T4_M11,T5_M11,U1_M11,ZSPAN_M11,X0_M11,X2_M11,X1_M11
2024-01-25 01:00:00,SystemResetWarning,0826.8,5.00,000.00,024.4,023.2,000.0,032.7,025.7,14.8,0000.0,0011.43,0006.09,0005.67
2024-01-25 01:01:00,SystemResetWarning,0826.8,5.00,000.00,024.4,023.2,000.0,032.7,025.6,14.8,0000.0,0011.19,0006.09,0005.66
2024-01-25 01:02:00,SystemResetWarning,0826.8,5.00,000.00,024.4,023.2,000.0,032.7,025.6,14.8,0000.0,0010.73,0006.09,0005.67
2024-01-25 01:03:00,SystemResetWarning,0826.9,5.00,000.00,024.3,023.2,000.0,032.7,025.6,14.8,0000.0,0011.22,0006.10,0005.67
2024-01-25 01:04:00,SystemResetWarning,0826.9,5.00,000.00,024.3,023.2,000.0,032.7,025.6,14.8,0000.0,0011.30,0006.08,0005.66
2024-01-25 01:05:00,SystemResetWarning,0826.9,5.00,000.00,024.3,023.2,000.0,032.7,025.6,14.8,0000.0,0010.91,0006.05,0005.65
2024-01-25 01:06:00,SystemResetWarning,0826.9,5.00,000.00,024.3,023.2,000.0,032.7,025.6,14.8,0000.0,0010.73,0006.05,0005.65
2024-01-25 01:07:00,SystemResetWarning,0826.9,5.00,000.00,024.3,023.2,000.0,032.7,025.6,14.9,0000.4,0010.76,0006.06,0005.66
2024-01-25 01:08:00,SystemResetWarning,0826.9,5.00,000.00,024.3,023.2,000.0,032.7,025.6,14.9,0000.6,0011.18,0006.12,0005.68
2024-01-25 01:09:00,SystemResetWarning,0826.9,5.00,000.00,024.3,023.2,000.0,032.7,025.6,14.9,0000.6,0011.41,0006.15,0005.71
2024-01-25 01:10:00,SystemResetWarning,0826.9,5.00,000.00,024.3,023.2,000.0,032.7,025.6,14.9,0000.8,0011.92,0006.14,0005.72
2024-01-25 01:11:00,SystemResetWarning,0827.0,5.00,000.00,024.3,023.2,000.0,032.7,025.6,14.9,0000.6,0011.69,0006.15,0005.73
2024-01-25 01:12:00,SystemResetWarning,0827.0,5.00,000.00,024.3,023.2,000.0,032.7,025.6,14.9,0000.7,0011.86,0006.15,0005.73
2024-01-25 01:13:00,SystemResetWarning,0827.0,5.00,000.00,024.3,023.1,000.0,032.7,025.6,14.9,0001.0,0012.03,0006.20,0005.75
2024-01-25 01:14:00,SystemResetWarning,0827.0,5.00,000.00,024.3,023.1,000.0,032.7,025.6,14.9,0000.6,0011.59,0006.21,0005.75
2024-01-25 01:15:00,SystemResetWarning,0826.9,5.00,000.00,024.3,023.1,000.0,032.7,025.6,14.9,0001.3,0011.79,0006.24,0005.76
2024-01-25 01:16:00,SystemResetWarning,0826.9,5.00,000.00,024.3,023.1,000.0,032.6,025.6,14.9,0001.6,0011.40,0006.27,0005.79
2024-01-25 01:17:00,SystemResetWarning,0826.9,5.00,000.00,024.2,023.1,000.0,032.6,025.6,14.9,0001.8,0011.38,0006.30,0005.82
2024-01-25 01:18:00,SystemResetWarning,0827.0,5.00,000.00,024.2,023.1,000.0,032.6,025.6,14.9,0002.8,0011.54,0006.34,0005.83
2024-01-25 01:19:00,SystemResetWarning,0826.9,5.00,000.00,024.2,023.1,000.0,032.6,025.6,14.9,0003.1,0011.55,0006.34,0005.82
2024-01-25 01:20:00,SystemResetWarning,0826.9,5.00,000.00,024.2,023.1,000.0,032.6,025.5,14.9,0003.0,0012.34,0006.32,0005.82
2024-01-25 01:21:00,SystemResetWarning,0826.9,5.00,000.00,024.2,023.1,000.0,032.6,025.5,14.9,0003.1,0012.14,0006.31,0005.81
2024-01-25 01:22:00,SystemResetWarning,0827.0,5.00,000.00,024.2,023.1,000.0,032.6,025.5,15.0,0003.7,0012.11,0006.34,0005.82
2024-01-25 01:23:00,SystemResetWarning,0827.0,5.00,000.00,024.2,023.1,000.0,032.6,025.5,15.0,0003.8,0012.31,0006.36,0005.83
2024-01-25 01:24:00,SystemResetWarning,0827.0,5.00,000.00,024.2,023.0,000.0,032.6,025.5,15.0,0004.0,0012.46,0006.35,0005.83
2024-01-25 01:25:00,SystemResetWarning,0827.0,5.00,000.00,024.2,023.0,000.0,032.6,025.5,15.0,0004.1,0012.73,0006.34,0005.81
2024-01-25 01:26:00,SystemResetWarning,0827.0,5.00,000.00,024.2,023.0,000.0,032.6,025.5,15.0,0004.3,0013.48,0006.33,0005.82
2024-01-25 01:27:00,SystemResetWarning,0827.0,5.00,000.00,024.2,023.0,000.0,032.6,025.5,15.1,0004.5,0014.23,0006.37,0005.83
2024-01-25 01:28:00,SystemResetWarning,0827.0,5.00,000.00,024.2,023.0,000.0,032.6,025.5,15.1,0004.4,0014.66,0006.40,0005.84
2024-01-25 01:29:00,SystemResetWarning,0827.0,5.00,000.00,024.2,023.0,000.0,032.6,025.5,15.1,0004.1,0015.04,0006.42,0005.87
2024-01-25 01:30:00,SystemResetWarning,0827.0,5.00,000.00,024.2,023.0,000.0,032.6,025.5,15.1,0003.9,0014.95,0006.43,0005.90
2024-01-25 01:31:00,SystemResetWarning,0827.0,5.00,000.00,024.1,022.9,000.0,032.6,025.5,15.1,0003.8,0014.20,0006.43,0005.91
2024-01-25 01:32:00,SystemResetWarning,0827.0,4.99,000.00,024.1,022.9,000.0,032.5,025.5,15.1,0004.1,0013.36,0006.49,0005.95
2024-01-25 01:33:00,SystemResetWarning,0827.0,5.00,000.00,024.1,022.9,000.0,032.5,025.5,15.1,0003.9,0013.37,0006.54,0005.99
2024-01-25 01:34:00,SystemResetWarning,0827.0,5.00,000.00,024.1,022.9,000.0,032.5,025.5,15.1,0003.8,0013.19,0006.58,0006.03
2024-01-25 01:35:00,SystemResetWarning,0827.0,5.00,000.00,024.1,022.9,000.0,032.5,025.5,15.0,0003.6,0012.94,0006.58,0006.04
2024-01-25 01:36:00,SystemResetWarning,0827.0,4.99,000.00,024.1,022.9,000.0,032.5,025.5,15.0,0003.4,0012.44,0006.61,0006.09
2024-01-25 01:37:00,SystemResetWarning,0827.0,5.00,000.00,024.1,022.9,000.0,032.5,025.5,15.0,0003.0,0011.77,0006.63,0006.13
2024-01-25 01:38:00,SystemResetWarning,0827.0,5.00,000.00,024.1,022.9,000.0,032.5,025.5,15.1,0003.0,0010.81,0006.65,0006.17
2024-01-25 01:39:00,SystemResetWarning,0827.0,5.00,000.00,024.1,022.9,000.0,032.5,025.5,15.1,0003.1,0011.20,0006.68,0006.20
2024-01-25 01:40:00,SystemResetWarning,0827.0,5.01,000.00,024.1,022.9,000.0,032.5,025.4,15.1,0003.4,0010.95,0006.72,0006.23
2024-01-25 01:41:00,SystemResetWarning,0827.0,5.01,000.00,024.1,022.9,000.0,032.5,025.4,15.2,0003.5,0010.91,0006.72,0006.25
2024-01-25 01:42:00,SystemResetWarning,0827.0,5.01,000.00,024.1,022.8,000.0,032.5,025.4,15.2,0003.7,0011.39,0006.75,0006.27
2024-01-25 01:43:00,SystemResetWarning,0827.0,5.00,000.00,024.1,022.8,000.0,032.5,025.4,15.2,0003.6,0011.52,0006.79,0006.30
2024-01-25 01:44:00,SystemResetWarning,0827.0,5.00,000.00,024.1,022.8,000.0,032.4,025.4,15.2,0003.6,0011.49,0006.77,0006.30
2024-01-25 01:45:00,SystemResetWarning,0827.0,5.00,000.00,024.0,022.8,000.0,032.4,025.4,15.2,0003.8,0011.52,0006.77,0006.29
2024-01-25 01:46:00,SystemResetWarning,0827.1,5.00,000.00,024.0,022.8,000.0,032.4,025.4,15.2,0003.9,0011.60,0006.80,0006.30
2024-01-25 01:47:00,SystemResetWarning,0827.1,5.00,000.00,024.0,022.8,000.0,032.4,025.3,15.2,0003.8,0011.61,0006.80,0006.30
2024-01-25 01:48:00,SystemResetWarning,0827.1,5.00,000.00,024.0,022.8,000.0,032.4,025.4,15.1,0003.8,0011.91,0006.82,0006.31
2024-01-25 01:49:00,SystemResetWarning,0827.1,5.00,000.00,024.0,022.8,000.0,032.4,025.4,15.2,0003.5,0011.98,0006.84,0006.31
2024-01-25 01:50:00,SystemResetWarning,0827.1,5.00,000.00,024.0,022.8,000.0,032.4,025.4,15.2,0003.4,0012.25,0006.86,0006.30
2024-01-25 01:51:00,SystemResetWarning,0827.1,5.00,000.00,024.0,022.8,000.0,032.4,025.3,15.2,0003.4,0011.94,0006.88,0006.30
2024-01-25 01:52:00,SystemResetWarning,0827.1,5.01,000.00,024.0,022.8,000.0,032.4,025.3,15.2,0003.2,0011.97,0006.93,0006.31
2024-01-25 01:53:00,SystemResetWarning,0827.0,5.00,000.00,024.0,022.8,000.0,032.4,025.3,15.2,0003.0,0012.61,0007.00,0006.34
2024-01-25 01:54:00,SystemResetWarning,0827.0,5.00,000.00,024.0,022.7,000.0,032.4,025.3,15.2,0002.5,0012.91,0007.04,0006.35
2024-01-25 01:55:00,SystemResetWarning,0827.0,5.00,000.00,024.0,022.7,000.0,032.4,025.3,15.2,0002.2,0012.94,0007.06,0006.36
2024-01-25 01:56:00,SystemResetWarning,0827.0,5.00,000.00,024.0,022.7,000.0,032.4,025.3,15.2,0002.1,0012.94,0007.08,0006.40
2024-01-25 01:57:00,SystemResetWarning,0827.0,5.01,000.00,024.0,022.7,000.0,032.4,025.3,15.3,0002.5,0012.96,0007.09,0006.41
2024-01-25 01:58:00,SystemResetWarning,0827.0,5.00,000.00,023.9,022.7,000.0,032.3,025.2,15.3,0002.6,0013.10,0007.11,0006.42
2024-01-25 01:59:00,SystemResetWarning,0827.0,5.01,000.00,023.9,022.7,000.0,032.3,025.3,15.3,0002.6,0013.19,0007.11,0006.41
